Location: Cahas Mountain Overlook
(37.0833°N, 80.1000°W)
Time: 18:48:37
(UTC-05:00)

Vanguard 3 - Pass Details

Date: 05 December 2023
Orbit: 508 x 3239 km, 33.4° (Epoch: 23 February)

Event Time Altitude Azimuth Distance (km) Brightness Sun altitude
Rises 20:09:10 0° 222° (SW) 6,979 12.4 -36.4°
Reaches altitude 10° 20:14:42 10° 216° (SW) 5,695 11.8 -37.5°
Enters shadow 20:27:39 37° 167° (SSE) 3,034 9.8 -40.1°
